Weather in Lebedevo

Russia / Novosibirsk Oblast     54°55′10″N   84°20′18″E
temp.,
°C
wind,
m/s
gust,
m/s
humid.,
%
clouds,
%
prec.,
mm/h
press.,
hPa
HPBL,
m
3 march, wed
wed301:00−17sw129789 0.1 101720
04:00−16sw129695 0.1 101727
07:00−17sw229689 0.1 101820
10:00−15sw239482 0.1 1019144
13:00−11sw348887 0.1 1019406
16:00−9sw4690100 0.1 1020512
19:00−13ssw3494100 0.1 102166
22:00−14sw4119475 0.0 1022246
4 march, thu
thu401:00−14ssw5129367 0.0 1023313
04:00−15ssw6149055 0.0 1023360
07:00−14ssw7158975 0.0 1023393
10:00−11ssw91788100 0.1 1022565
13:00−7ssw91687100 0.1 1021670
16:00−5ssw91591100 0.2 1019783
19:00−5ssw91688100 0.4 1019700
22:00−6ssw91784100 0.0 1018565
5 march, fri
fri501:00−8ssw81785100 0.0 1017445
04:00−7ssw81882100 0.0 1015447
07:00−7ssw81779100 0.0 1014468
10:00−6ssw91783100 0.0 1012623
13:00−4sw101692100 1.3 1012964
16:00−2wsw101685100 0.7 10141507
19:00−4sw7148394 0.8 1017744
22:00−6sw111892100 0.6 10171186
6 march, sat
sat601:00−6sw91592100 1.8 10191025
04:00−6sw81491100 0.4 1020781
07:00−6sw81592100 0.8 1020706
10:00−5sw91592100 0.7 1018856
13:00−4sw111786100 1.3 1017919
16:00−4sw11187999 0.0 1015997
19:00−4sw10198099 0.0 1014940
22:00−5sw101889100 0.2 1014846
7 march, sun
sun701:00−5sw91788100 0.3 1014756
04:00−5sw81689100 0.1 1014695
07:00−6sw71491100 0.1 1016470
10:00−5ssw71292100 0.0 1017507
13:00−3ssw71292100 0.3 1016658
16:00−2ssw91693100 0.6 1014796
19:00−2ssw91780100 0.8 1014645
22:00−3sw91881100 0.0 1014559